Temp
-16 -16 -16 -16 -16 -16 -17 -17 -18 -18 -18 -18 -18 -18 -18 -17 -17 -17 -17 -17 -17 -17 -17 -17 -17 -17 -17 -17 -17 -17 -17 -17 -17 -17 -17 -17 -17 -16 -16 -16 -16 -16
-16 -16 -16 -16 -16 -17 -18 -18 -18 -18 -18 -18 -18 -18 -18 -18 -18 -18 -17 -17 -17 -17 -17 -17 -17 -17 -17 -17 -17 -17 -17 -17 -17 -17 -17 -17 -17 -17 -17 -17 -16 -16
-16 -16 -17 -17 -17 -18 -18 -19 -19 -19 -19 -18 -18 -18 -18 -18 -18 -18 -18 -18 -18 -18 -18 -18 -18 -18 -18 -18 -18 -17 -17 -17 -17 -17 -17 -17 -17 -17 -17 -17 -17 -17
-17 -17 -17 -18 -18 -19 -19 -19 -19 -19 -19 -19 -18 -18 -18 -18 -18 -18 -18 -18 -18 -18 -18 -18 -18 -18 -18 -18 -18 -18 -18 -18 -18 -18 -18 -18 -18 -18 -18 -17 -17 -17
-17 -17 -18 -18 -19 -19 -19 -19 -19 -19 -19 -19 -19 -19 -19 -19 -19 -18 -18 -18 -18 -18 -18 -18 -18 -18 -18 -18 -18 -18 -18 -18 -18 -18 -18 -18 -18 -18 -18 -18 -18 -18
-18 -18 -18 -19 -19 -19 -19 -19 -19 -19 -19 -19 -19 -19 -19 -19 -19 -19 -19 -19 -19 -19 -19 -19 -19 -19 -19 -19 -19 -19 -19 -19 -19 -19 -19 -19 -19 -19 -19 -19 -19 -19
-18 -19 -19 -19 -19 -19 -19 -19 -19 -19 -19 -19 -19 -19 -19 -19 -19 -19 -19 -19 -19 -19 -19 -19 -19 -19 -19 -19 -19 -19 -19 -19 -19 -19 -19 -19 -19 -19 -19 -19 -19 -19
-19 -19 -19 -19 -19 -19 -19 -20 -19 -19 -19 -20 -20 -20 -20 -20 -19 -19 -19 -19 -19 -19 -19 -19 -19 -19 -19 -19 -19 -19 -19 -19 -19 -20 -20 -20 -20 -20 -20 -20 -20 -20
-19 -19 -19 -19 -19 -20 -20 -20 -20 -20 -20 -20 -20 -20 -20 -20 -20 -20 -20 -20 -20 -19 -19 -19 -19 -19 -19 -20 -20 -20 -20 -20 -20 -20 -20 -20 -20 -20 -20 -20 -21 -21
-19 -19 -19 -20 -20 -20 -20 -20 -20 -20 -20 -20 -20 -20 -20 -20 -20 -20 -20 -20 -20 -20 -20 -20 -20 -20 -20 -20 -20 -20 -20 -20 -20 -20 -20 -21 -21 -21 -21 -21 -21 -21
-20 -20 -20 -20 -20 -20 -20 -20 -20 -20 -20 -20 -20 -20 -20 -20 -20 -20 -20 -20 -20 -20 -20 -20 -20 -20 -20 -20 -21 -21 -21 -21 -21 -21 -21 -21 -21 -21 -21 -22 -22 -22
-20 -20 -20 -20 -20 -20 -20 -20 -20 -20 -20 -20 -20 -20 -20 -20 -20 -20 -20 -20 -20 -20 -20 -20 -20 -21 -21 -21 -21 -21 -21 -21 -21 -21 -21 -22 -22 -22 -22 -22 -22 -22
-20 -20 -20 -20 -20 -20 -20 -20 -20 -20 -20 -20 -20 -20 -20 -20 -20 -20 -21 -21 -21 -20 -21 -21 -21 -21 -21 -21 -21 -21 -21 -21 -22 -22 -22 -22 -22 -22 -22 -22 -22 -22
-20 -20 -20 -20 -20 -20 -20 -20 -20 -20 -20 -20 -20 -20 -20 -20 -20 -21 -21 -21 -21 -21 -21 -21 -21 -21 -21 -21 -21 -22 -22 -22 -22 -22 -22 -22 -22 -22 -23 -23 -23 -23
-20 -20 -20 -20 -20 -20 -20 -20 -20 -20 -20 -20 -20 -20 -20 -20 -21 -21 -21 -21 -21 -21 -21 -21 -21 -22 -22 -22 -22 -22 -22 -22 -22 -22 -22 -22 -23 -23 -23 -23 -23 -23
-20 -21 -21 -21 -21 -21 -21 -21 -21 -20 -21 -21 -21 -21 -20 -21 -21 -21 -21 -21 -21 -21 -21 -22 -22 -22 -22 -22 -22 -22 -22 -23 -23 -23 -23 -23 -23 -23 -23 -23 -23 -24
-21 -21 -21 -21 -21 -21 -21 -21 -21 -21 -21 -21 -21 -21 -21 -21 -21 -21 -21 -21 -21 -22 -22 -22 -22 -22 -22 -22 -23 -23 -23 -23 -23 -23 -23 -23 -23 -23 -23 -23 -23 -24
-22 -22 -22 -21 -21 -21 -21 -21 -21 -21 -21 -21 -21 -21 -21 -21 -21 -21 -21 -22 -22 -22 -22 -22 -23 -23 -23 -23 -23 -23 -23 -23 -23 -23 -23 -23 -23 -23 -23 -23 -24 -24
-22 -22 -22 -22 -21 -21 -21 -21 -21 -21 -21 -21 -21 -21 -21 -21 -22 -22 -22 -22 -22 -22 -23 -23 -23 -23 -23 -23 -23 -23 -23 -23 -23 -23 -23 -23 -23 -23 -23 -24 -24 -24
-22 -22 -22 -21 -21 -21 -21 -21 -21 -21 -21 -21 -21 -21 -21 -22 -22 -22 -22 -22 -23 -23 -23 -23 -24 -24 -23 -23 -23 -23 -23 -23 -23 -23 -23 -23 -23 -24 -24 -24 -24 -25
-22 -22 -21 -21 -21 -21 -21 -21 -21 -21 -21 -21 -21 -22 -22 -22 -22 -23 -23 -23 -23 -23 -24 -24 -24 -24 -24 -23 -23 -23 -23 -23 -23 -23 -24 -24 -24 -24 -24 -25 -25 -26
-21 -21 -21 -21 -21 -21 -21 -21 -21 -21 -21 -22 -22 -22 -22 -23 -23 -23 -23 -23 -24 -24 -24 -24 -24 -24 -24 -24 -24 -24 -24 -24 -24 -24 -24 -24 -25 -25 -25 -26 -26 -27
-21 -21 -21 -21 -21 -21 -22 -22 -22 -22 -22 -22 -22 -23 -23 -23 -23 -24 -24 -24 -24 -24 -24 -24 -24 -24 -24 -24 -24 -24 -24 -24 -24 -24 -25 -25 -25 -26 -26 -27 -27 -28
-22 -22 -22 -22 -22 -22 -22 -22 -22 -22 -23 -23 -23 -23 -23 -24 -24 -24 -24 -24 -24 -24 -24 -24 -24 -24 -24 -24 -24 -25 -25 -25 -25 -25 -25 -26 -26 -27 -27 -28 -28 -29
-22 -22 -22 -22 -22 -22 -22 -23 -23 -23 -23 -23 -24 -24 -24 -24 -24 -24 -25 -25 -25 -24 -24 -24 -24 -25 -25 -25 -25 -25 -25 -25 -25 -26 -26 -27 -27 -28 -28 -29 -29 -30
-22 -22 -22 -22 -22 -23 -23 -23 -23 -24 -24 -24 -24 -24 -24 -25 -25 -25 -25 -25 -25 -25 -25 -25 -25 -25 -25 -25 -25 -26 -26 -26 -26 -27 -27 -27 -28 -28 -29 -30 -30 -30
Height
5622 5621 5620 5620 5620 5620 5620 5620 5621 5621 5620 5620 5620 5619 5619 5618 5617 5616 5615 5614 5613 5611 5610 5609 5608 5607 5605 5604 5603 5602 5601 5599 5598 5596 5594 5592 5591 5589 5587 5585 5582 5580
5615 5614 5614 5613 5613 5613 5614 5614 5615 5615 5614 5614 5613 5613 5612 5611 5610 5609 5608 5606 5605 5603 5602 5601 5600 5599 5597 5596 5595 5593 5592 5591 5589 5588 5586 5584 5582 5579 5577 5575 5572 5570
5608 5607 5607 5607 5607 5608 5608 5608 5608 5608 5608 5607 5606 5605 5604 5603 5602 5601 5600 5598 5597 5596 5594 5593 5592 5591 5589 5588 5587 5585 5584 5582 5581 5579 5577 5574 5572 5570 5567 5564 5561 5559
5601 5601 5601 5601 5601 5602 5602 5602 5601 5601 5600 5599 5598 5597 5596 5595 5594 5593 5592 5590 5589 5588 5586 5585 5584 5583 5582 5580 5579 5577 5575 5574 5572 5570 5568 5565 5563 5560 5557 5554 5551 5548
5595 5595 5595 5595 5595 5595 5595 5595 5594 5593 5593 5592 5590 5589 5588 5587 5586 5585 5584 5582 5581 5580 5578 5577 5576 5575 5574 5572 5571 5569 5567 5565 5563 5561 5558 5556 5553 5550 5547 5544 5541 5538
5589 5588 5589 5589 5589 5589 5588 5587 5586 5586 5585 5584 5583 5582 5581 5580 5579 5577 5576 5575 5573 5572 5571 5569 5568 5567 5565 5564 5562 5560 5558 5556 5554 5551 5548 5546 5543 5540 5537 5534 5531 5528
5582 5582 5582 5582 5582 5582 5581 5580 5579 5579 5578 5577 5576 5575 5574 5573 5572 5570 5569 5567 5566 5564 5563 5561 5560 5558 5557 5555 5553 5551 5549 5546 5544 5541 5538 5535 5532 5530 5527 5524 5521 5518
5575 5576 5576 5576 5576 5575 5574 5573 5572 5571 5571 5570 5569 5569 5568 5566 5565 5563 5561 5559 5558 5556 5554 5553 5551 5549 5547 5545 5543 5540 5538 5536 5534 5531 5528 5525 5522 5520 5517 5514 5511 5508
5569 5569 5569 5569 5569 5568 5567 5566 5565 5565 5564 5563 5562 5561 5560 5559 5557 5555 5553 5551 5549 5547 5545 5543 5541 5540 5537 5535 5533 5530 5528 5526 5523 5521 5518 5516 5513 5510 5507 5504 5500 5497
5562 5562 5562 5562 5562 5561 5560 5559 5558 5557 5557 5556 5555 5553 5552 5550 5549 5547 5544 5542 5540 5538 5536 5534 5532 5530 5528 5526 5523 5521 5519 5516 5514 5512 5509 5506 5503 5500 5497 5493 5489 5486
5555 5555 5555 5555 5555 5554 5553 5552 5551 5550 5549 5548 5546 5545 5543 5541 5539 5537 5535 5533 5531 5528 5526 5524 5522 5520 5518 5516 5514 5512 5510 5508 5505 5502 5499 5496 5493 5489 5486 5482 5479 5475
5549 5549 5549 5548 5548 5547 5545 5544 5543 5542 5541 5540 5538 5536 5534 5532 5530 5529 5526 5524 5522 5519 5517 5514 5513 5511 5509 5507 5505 5503 5501 5498 5495 5492 5489 5485 5482 5478 5475 5471 5467 5464
5543 5543 5542 5542 5541 5540 5538 5537 5536 5535 5533 5532 5530 5528 5526 5524 5522 5520 5518 5515 5513 5510 5508 5505 5503 5502 5500 5498 5495 5493 5491 5488 5485 5482 5479 5475 5471 5467 5463 5459 5456 5452
5537 5536 5536 5535 5533 5532 5531 5530 5528 5527 5525 5524 5522 5520 5518 5515 5514 5512 5509 5507 5504 5502 5499 5497 5494 5492 5490 5488 5485 5483 5480 5477 5475 5471 5468 5465 5461 5456 5452 5447 5443 5440
5530 5529 5528 5527 5526 5525 5523 5522 5521 5519 5518 5516 5514 5512 5510 5507 5505 5503 5501 5498 5496 5493 5490 5487 5484 5482 5480 5478 5475 5472 5470 5467 5464 5461 5458 5454 5450 5445 5441 5435 5431 5427
5522 5521 5520 5519 5518 5517 5516 5514 5513 5511 5510 5508 5506 5503 5501 5499 5497 5495 5492 5490 5486 5483 5480 5477 5474 5471 5469 5467 5464 5462 5459 5457 5454 5451 5447 5443 5439 5434 5430 5425 5420 5415
5514 5514 5513 5512 5511 5509 5508 5507 5505 5503 5502 5499 5497 5495 5492 5490 5488 5485 5483 5480 5477 5473 5470 5466 5463 5461 5459 5457 5454 5451 5449 5446 5443 5440 5436 5431 5427 5424 5419 5415 5411 5406
5508 5507 5505 5504 5503 5501 5500 5498 5497 5495 5493 5491 5488 5486 5483 5481 5478 5475 5472 5470 5467 5463 5460 5457 5453 5451 5449 5446 5443 5440 5437 5435 5432 5428 5424 5420 5416 5412 5408 5404 5400 5396
5501 5500 5498 5497 5495 5493 5491 5490 5488 5486 5484 5481 5479 5476 5474 5471 5468 5465 5462 5459 5457 5453 5450 5446 5442 5440 5438 5435 5432 5429 5425 5422 5419 5415 5411 5407 5403 5399 5395 5391 5387 5382
5494 5492 5490 5489 5487 5485 5484 5482 5480 5478 5475 5472 5469 5467 5464 5461 5458 5455 5452 5449 5446 5443 5440 5435 5431 5429 5426 5423 5420 5417 5413 5410 5406 5402 5398 5394 5390 5386 5381 5376 5372 5368
5486 5484 5482 5481 5479 5477 5476 5473 5471 5469 5466 5463 5460 5458 5455 5452 5449 5446 5442 5439 5436 5433 5429 5425 5420 5417 5415 5412 5408 5404 5400 5397 5393 5389 5386 5382 5377 5372 5367 5362 5357 5353
5477 5476 5474 5472 5471 5469 5467 5464 5462 5459 5457 5454 5451 5448 5445 5442 5439 5436 5432 5429 5425 5422 5419 5415 5410 5406 5403 5400 5396 5392 5388 5385 5381 5377 5374 5369 5364 5358 5353 5348 5343 5339
5469 5468 5466 5464 5462 5459 5457 5455 5453 5450 5448 5445 5442 5439 5435 5432 5429 5425 5422 5419 5415 5411 5408 5404 5398 5393 5390 5387 5383 5378 5375 5372 5368 5364 5360 5355 5350 5345 5340 5335 5330 5325
5461 5459 5457 5455 5452 5450 5447 5445 5443 5440 5438 5435 5432 5429 5425 5422 5419 5415 5411 5408 5404 5400 5395 5391 5386 5381 5377 5373 5369 5365 5362 5359 5355 5352 5347 5342 5338 5333 5327 5322 5317 5311
5452 5450 5448 5445 5443 5440 5438 5435 5433 5430 5428 5425 5422 5419 5416 5412 5409 5405 5401 5396 5392 5388 5383 5378 5374 5369 5364 5360 5357 5353 5349 5346 5342 5338 5335 5330 5325 5320 5315 5309 5304 5298
5443 5441 5438 5436 5433 5431 5428 5426 5423 5421 5418 5415 5412 5409 5405 5401 5398 5395 5391 5386 5381 5376 5371 5366 5362 5358 5353 5348 5344 5340 5336 5333 5329 5325 5320 5317 5312 5306 5301 5297 5291 5284
Wind_Speed
65 66 67 67 67 67 66 64 61 60 59 59 59 59 59 60 60 60 60 60 60 59 58 57 57 57 57 58 59 59 60 61 62 63 64 65 66 67 68 69 70 71
65 67 68 68 68 66 63 60 58 57 57 57 58 58 59 59 60 60 60 60 59 58 57 57 57 57 58 59 59 60 61 62 63 64 65 66 67 69 70 70 71 72
65 67 67 67 65 62 59 56 55 55 55 56 57 58 58 59 59 59 59 59 58 57 56 56 57 57 58 59 60 61 63 64 65 66 67 68 69 70 71 72 73 74
66 66 65 64 61 58 55 54 54 55 55 56 56 57 57 57 58 58 58 58 57 57 57 57 57 58 59 60 61 62 64 65 66 67 68 69 70 71 72 73 74 75
65 65 64 62 59 57 56 55 55 55 54 54 55 55 56 57 57 58 58 58 58 58 58 58 58 59 60 61 63 64 65 66 67 68 69 71 72 73 74 75 76 77
63 63 62 61 60 58 57 56 55 54 53 53 54 55 56 57 58 58 58 58 59 59 59 59 60 61 62 63 64 65 66 67 68 70 71 72 73 74 75 77 78 79
59 60 60 60 59 57 56 55 53 52 52 52 54 56 57 58 59 59 59 59 60 61 61 61 62 63 63 64 66 67 68 68 70 71 72 74 75 76 77 79 80 81
57 59 59 58 57 55 54 54 53 52 53 54 56 58 59 61 61 61 61 61 62 62 63 63 64 65 65 66 67 68 69 70 72 73 74 76 77 78 79 80 81 82
58 59 58 55 54 53 54 56 57 57 57 59 61 62 63 64 65 65 64 64 64 65 65 66 66 67 67 68 69 70 71 72 74 75 76 78 79 80 81 82 83 84
58 57 54 52 53 55 58 62 63 63 64 65 66 67 68 69 69 68 67 67 67 67 68 68 68 69 69 70 71 72 73 75 76 77 78 80 81 82 83 84 84 85
54 52 52 53 57 61 65 68 69 69 69 70 71 72 73 74 73 72 71 71 71 71 71 71 70 71 71 72 73 74 75 77 78 79 80 81 83 83 84 85 86 87
52 53 55 59 63 67 70 72 72 73 74 74 75 75 75 78 78 76 75 74 74 73 73 73 72 73 73 74 75 76 77 78 79 81 82 83 84 85 86 87 88 88
54 58 62 66 69 71 72 73 74 75 76 76 77 76 77 81 81 79 78 77 76 76 75 74 74 75 76 76 78 79 80 80 82 83 84 85 86 87 88 89 89 89
61 65 68 71 72 73 74 74 75 77 78 78 78 77 80 83 84 81 80 79 78 77 76 76 77 77 78 79 80 81 82 83 84 85 86 87 88 89 90 90 90 89
67 70 72 73 73 74 75 76 78 80 80 80 79 79 82 85 85 83 82 80 79 78 78 78 79 79 80 81 82 83 84 85 86 87 88 89 90 91 91 91 90 91
69 71 72 73 73 75 76 78 81 82 82 81 81 81 84 87 86 84 82 81 80 80 80 80 81 82 82 83 84 85 86 87 88 89 90 91 91 91 91 91 91 92
70 71 72 73 74 76 78 80 82 83 82 82 83 84 86 87 86 84 83 82 81 81 81 82 83 84 84 85 86 87 88 89 90 91 92 93 92 91 91 92 92 94
68 69 71 73 75 77 79 81 82 82 83 84 85 87 88 88 85 84 83 82 82 82 82 83 84 85 86 87 88 89 91 92 93 94 94 93 93 92 93 94 95 95
67 70 72 74 77 79 81 82 82 83 85 86 87 88 88 87 85 84 83 83 83 83 84 85 86 87 88 89 91 92 94 95 95 96 95 94 94 95 96 97 97 97
69 72 75 78 80 81 82 83 85 86 87 88 88 88 87 85 85 84 83 84 84 85 86 87 88 89 91 92 94 95 96 97 97 96 96 96 97 98 99 99 99 99
73 76 78 80 82 83 84 85 86 87 87 86 86 86 85 84 84 84 84 85 86 86 87 89 90 92 93 95 96 97 98 98 97 97 97 98 99 100 101 101 101 100
77 79 81 82 83 84 85 85 85 85 84 84 84 84 84 84 84 84 85 86 87 88 89 91 93 94 96 97 98 98 98 98 98 98 99 100 100 101 101 101 101 101
78 79 80 81 82 82 82 82 82 82 82 82 82 83 83 84 84 85 86 86 88 90 91 93 95 96 98 99 99 99 99 99 100 100 100 101 101 102 102 102 101 101
77 78 79 79 80 80 80 80 80 80 80 81 81 82 83 84 85 86 87 88 90 92 94 95 97 98 100 100 100 100 100 101 101 101 101 102 102 102 102 101 101 100
76 76 77 77 77 78 78 78 78 79 80 80 81 82 83 85 86 87 89 91 93 94 96 98 99 100 100 100 100 101 101 102 102 102 102 102 102 101 101 100 100 99
75 75 75 75 76 76 76 77 78 79 80 81 82 83 84 86 87 89 91 93 94 96 98 99 100 100 101 101 102 102 102 103 103 103 102 102 102 101 101 99 98 98
Wind_Direction
265 265 266 266 265 265 265 266 267 269 270 272 273 274 274 275 275 275 275 275 275 274 275 276 277 279 280 281 281 282 283 284 285 285 286 287 288 289 290 291 292 293
265 265 266 266 266 266 267 269 270 272 273 274 275 275 275 275 275 275 275 275 275 275 276 277 279 280 281 282 283 284 284 285 285 286 287 288 289 290 291 292 293 294
265 265 265 265 266 267 269 270 272 273 274 275 276 276 276 276 277 276 276 276 276 277 278 279 280 281 282 283 284 284 285 285 286 287 288 289 290 291 292 294 295 296
265 265 264 265 266 268 269 271 272 274 276 277 277 278 278 279 279 279 279 279 279 280 280 281 281 282 283 284 284 285 285 286 287 288 289 290 291 293 294 295 296 297
266 265 265 266 267 268 270 271 273 275 277 279 280 281 282 282 282 282 282 282 282 282 282 283 283 284 284 285 285 286 286 287 288 289 290 292 293 294 295 296 297 297
265 264 264 265 266 268 269 271 274 277 280 282 284 285 285 285 285 285 285 285 285 284 284 284 284 285 285 286 286 286 287 288 289 291 292 293 294 295 296 297 297 298
263 262 263 264 266 268 270 272 276 279 283 286 289 290 289 289 288 287 287 286 286 286 285 285 286 286 286 286 287 287 288 290 291 292 294 294 295 296 296 297 297 298
260 261 263 265 267 269 273 277 280 283 286 290 293 294 293 292 291 289 288 288 288 287 287 287 287 287 287 288 288 289 290 292 293 294 294 295 295 296 296 296 297 298
261 263 265 267 270 273 276 279 281 284 287 290 293 295 296 295 293 291 290 290 289 289 288 288 288 288 289 289 290 291 292 293 294 294 295 295 295 296 296 297 298 299
263 265 267 270 274 277 278 279 279 281 284 286 289 293 296 297 295 293 292 292 291 290 289 289 289 289 290 290 291 292 292 293 293 294 294 295 295 296 297 298 299 300
264 267 270 274 277 278 278 278 279 280 282 284 287 289 294 297 296 294 293 293 291 290 290 290 290 290 290 291 291 292 292 292 293 294 294 295 296 297 298 299 300 300
265 268 271 274 276 276 276 277 279 281 282 284 286 287 291 296 296 294 293 293 291 290 290 290 290 290 290 291 291 291 292 293 294 294 295 296 297 298 299 300 300 301
266 269 271 273 274 275 275 277 279 281 282 283 285 286 289 294 295 293 293 292 291 290 289 289 290 290 290 290 291 292 293 293 294 295 296 297 298 299 300 300 300 300
268 270 271 272 273 274 276 277 278 280 280 282 284 285 289 293 294 293 292 291 289 289 289 289 289 289 290 291 291 292 293 294 295 296 297 298 299 299 300 300 300 300
271 271 271 272 273 274 276 277 278 279 279 281 283 285 289 293 293 291 290 289 288 288 288 289 289 290 290 291 292 293 294 295 296 297 298 298 299 300 300 300 300 300
271 271 272 272 273 274 275 276 277 278 279 280 282 285 289 292 291 289 288 288 288 288 288 289 289 290 291 292 293 294 295 296 296 297 298 298 299 299 300 300 300 300
270 271 271 272 273 274 274 275 276 277 278 280 282 286 290 291 289 288 287 287 287 288 289 289 290 291 292 293 294 295 295 296 296 297 298 298 298 299 299 299 299 300
270 271 271 272 273 273 274 275 277 278 279 281 284 287 289 289 288 287 286 287 287 288 289 290 290 291 293 293 294 295 295 296 296 297 298 298 298 298 298 299 299 300
269 269 270 271 272 273 274 276 278 280 281 283 286 288 288 287 286 286 287 287 288 289 290 290 292 293 294 294 295 295 296 296 297 297 298 298 298 298 299 299 300 300
268 269 270 270 271 272 275 277 279 281 283 285 286 286 286 285 285 286 287 288 289 289 291 292 293 294 294 295 295 296 296 297 298 298 298 298 299 299 300 300 300 301
268 269 270 271 273 274 277 279 281 282 284 284 284 284 284 285 286 287 288 289 289 290 292 293 293 294 294 295 296 297 297 297 298 298 298 299 299 300 300 301 301 301
268 269 271 273 275 277 279 280 281 282 282 283 283 283 284 286 287 287 288 289 291 292 293 293 294 294 295 296 296 297 297 297 297 298 299 299 300 300 301 301 301 301
270 272 274 276 278 279 280 280 281 281 282 282 283 284 286 286 287 288 290 291 292 293 293 294 294 295 296 296 297 297 297 297 298 299 300 300 301 301 301 301 301 301
275 276 277 278 279 279 280 280 281 282 283 284 285 286 287 288 289 290 291 292 293 293 294 294 295 296 296 297 297 297 297 298 298 299 300 300 301 301 301 301 300 300
277 278 278 279 279 280 281 281 282 283 284 285 286 287 288 289 290 291 292 292 293 294 294 295 295 296 296 297 297 297 297 298 299 299 300 300 301 301 300 300 299 299
278 278 279 280 281 281 282 283 284 285 285 286 287 288 290 290 291 292 292 293 294 294 295 295 295 295 296 296 297 297 298 299 299 300 300 300 300 300 300 299 299 298